Погода в Уральском

Россия / Пермский край     57°56′28″N   55°33′21″E
темп.,
°C
ветер,
м/с
пор.,
м/с
влажн.,
%
обл.,
%
осадки,
мм/ч
давл.,
гПа
погр.,
м
12 апреля, пн
пн1223:00+1зюз11100100 0.6 103327
02:00+1зюз1299100 0.0 1034101
05:00+1з1299100 0.0 1036111
08:00+1сз1397100 0.0 1037109
11:00+6ссз2381100 0.0 1039369
14:00+9ссз23540 0.0 1039962
17:00+10ссз22480 0.0 1039958
20:00+5с11724 0.0 104010
13 апреля, вт
вт1323:00+3св11785 0.0 104110
02:00+2в11825 0.0 104110
05:00+1в11842 0.0 104110
08:00+3юв12765 0.0 104161
11:00+8ююв235640 0.0 1039414
14:00+12ю234274 0.0 1037765
17:00+13ююз3442100 0.0 1035737
20:00+9ююз2268100 0.0 103415
14 апреля, ср
ср1423:00+7юз2280100 0.0 103330
02:00+6юз2489100 0.0 103264
05:00+6юз2293100 0.0 103231
08:00+7юз2692100 0.0 1031149
11:00+13юз367257 0.0 1030476
14:00+16юз4653100 0.0 10291244
17:00+17юз46458 0.0 10271405
20:00+12юз236371 0.0 102651
15 апреля, чт
чт1523:00+9юз227264 0.0 102618
02:00+7юз227872 0.0 102523
05:00+6юз228119 0.0 102520
08:00+7ююз277824 0.0 1024183
11:00+13юз366098 0.0 1022545
14:00+17юз474933 0.0 10201277
17:00+18зюз464713 0.0 10181606
20:00+14юз226550 0.0 101724
16 апреля, пт
пт1623:00+12юз2370100 0.0 101684
02:00+11зюз1277100 0.0 101532
05:00+9ссз1182100 0.0 101431
08:00+7с358789 0.0 1014265
11:00+7ссв347791 0.0 1014639
14:00+6с4578100 0.0 1015707
17:00+3с4887100 0.1 1015760
20:00+2с4896100 0.4 1015665